Weather History for Salt Lake City, UT

Change the Weather History Date:

Wednesday, April 16, 2014

  Actual Average Record
Temperature  
Mean Temperature 49 °F 50 °F  
Max Temperature 58 °F 62 °F 84 °F (1936)
Min Temperature 40 °F 39 °F 25 °F (1922)
Degree Days  
Heating Degree Days 16 15  
Month to date heating degree days 201 261  
Since 1 July heating degree days 4675 5179  
Cooling Degree Days 0 0  
Month to date cooling degree days 0 0  
Year to date cooling degree days 0 0  
Moisture  
Dew Point 17 °F    
Average Humidity 31    
Maximum Humidity 51    
Minimum Humidity 11    
Precipitation  
Precipitation 0.00 in 0.06 in 1.12 in (1941)
Month to date precipitation 0.25 1.05  
Year to date precipitation 4.13 5.34  
Snow  
Snow 0.00 in 0.20 in 4.20 in (1941)
Month to date snowfall T 2.8  
Since 1 July snowfall 35.5 54.7  
Snow Depth 0.00 in    
Sea Level Pressure  
Sea Level Pressure 29.93 in    
Wind  
Wind Speed 7 mph (NW)    
Max Wind Speed 17 mph    
Max Gust Speed 21 mph    
Visibility 10 miles    
Events      
T = Trace of Precipitation, MM = Missing Value Source: NWS Daily Summary

Daily Weather History Graph

Daily Weather History Graph

Search for Another Location

Airport:

Trip Planner

Search our weather history database for the weather conditions in past years. The results will help you decide how hot, cold, wet, or windy it might be!

Date:

Astronomy

Apr. 16, 2014 Rise Set
Actual Time 6:47 AM MDT 8:08 PM MDT
Civil Twilight 6:18 AM MDT 8:37 PM MDT
Nautical Twilight 5:44 AM MDT 9:11 PM MDT
Astronomical Twilight 5:08 AM MDT 9:47 PM MDT
Moon 9:56 PM MDT (4/16) 7:37 AM MDT (4/16)
Length of Visible Light 14h 18m
Length of Day
13h 21m
Full, 98% of the Moon is Illuminated
Apr 16
Full
Apr 22
Last Quarter
Apr 29
New
May 6
First Quarter
May 14
Full

Hourly Weather History & Observations

Time (MDT) Temp. Windchill Dew Point Humidity Pressure Visibility Wind Dir Wind Speed Gust Speed Precip Events Conditions
12:53 AM 50.0 °F - 19.9 °F 31% 29.85 in 10.0 mi North 4.6 mph - N/A   Mostly Cloudy
1:53 AM 48.0 °F - 21.9 °F 36% 29.87 in 10.0 mi North 5.8 mph - N/A   Mostly Cloudy
2:53 AM 46.0 °F 41.0 °F 19.0 °F 34% 29.87 in 10.0 mi North 10.4 mph - N/A   Mostly Cloudy
3:53 AM 45.0 °F 42.6 °F 21.0 °F 39% 29.89 in 10.0 mi West 4.6 mph - N/A   Mostly Cloudy
4:53 AM 45.0 °F 42.6 °F 19.9 °F 37% 29.90 in 10.0 mi WNW 4.6 mph - N/A   Mostly Cloudy
5:53 AM 41.0 °F - 25.0 °F 53% 29.90 in 10.0 mi Calm Calm - N/A   Mostly Cloudy
6:53 AM 42.1 °F 40.2 °F 21.9 °F 45% 29.92 in 10.0 mi NW 3.5 mph - N/A   Mostly Cloudy
7:53 AM 46.0 °F 43.1 °F 19.9 °F 35% 29.94 in 10.0 mi North 5.8 mph - N/A   Mostly Cloudy
8:53 AM 46.9 °F - 19.9 °F 34% 29.95 in 10.0 mi WNW 5.8 mph - N/A   Mostly Cloudy
9:53 AM 50.0 °F - 21.9 °F 33% 29.95 in 10.0 mi North 6.9 mph - N/A   Scattered Clouds
10:53 AM 52.0 °F - 21.0 °F 30% 29.96 in 10.0 mi NW 9.2 mph - N/A   Mostly Cloudy
11:53 AM 54.0 °F - 16.0 °F 22% 29.96 in 10.0 mi WNW 10.4 mph - N/A   Mostly Cloudy
12:53 PM 54.0 °F - 17.1 °F 23% 29.96 in 10.0 mi NNW 3.5 mph - N/A   Scattered Clouds
1:53 PM 55.0 °F - 17.1 °F 23% 29.95 in 10.0 mi Variable 3.5 mph - N/A   Scattered Clouds
2:53 PM 55.9 °F - 12.0 °F 18% 29.94 in 10.0 mi NW 11.5 mph 20.7 mph N/A   Scattered Clouds
3:53 PM 55.9 °F - 3.9 °F 12% 29.94 in 10.0 mi NW 12.7 mph 19.6 mph N/A   Mostly Cloudy
4:53 PM 57.0 °F - 5.0 °F 12% 29.94 in 10.0 mi WNW 6.9 mph - N/A   Mostly Cloudy
5:53 PM 57.0 °F - 7.0 °F 14% 29.94 in 10.0 mi NNE 3.5 mph - N/A   Scattered Clouds
6:53 PM 55.9 °F - 10.9 °F 17% 29.94 in 10.0 mi North 5.8 mph - N/A   Partly Cloudy
7:53 PM 51.1 °F - 15.1 °F 24% 29.94 in 10.0 mi West 5.8 mph - N/A   Scattered Clouds
8:53 PM 48.0 °F - 17.1 °F 29% 29.96 in 10.0 mi West 6.9 mph - N/A   Partly Cloudy
9:53 PM 48.9 °F - 16.0 °F 27% 29.96 in 10.0 mi Calm Calm - N/A   Partly Cloudy
10:53 PM 46.0 °F 43.1 °F 15.1 °F 29% 29.97 in 10.0 mi ESE 5.8 mph - N/A   Partly Cloudy
11:53 PM 42.1 °F 37.7 °F 18.0 °F 38% 29.98 in 10.0 mi SSW 6.9 mph - N/A   Partly Cloudy